SCP
2 2 2 2 2 1 1 1 0 0 0 0 0 0 0 0 0 0 0 0 0 0 0 0 0 0 0 0 0 0 0 0 0 0 0 0 0 0 0 0 0 1 1
3 2 2 2 2 1 1 1 0 0 0 0 0 0 0 0 0 0 0 0 0 0 0 0 0 0 0 0 0 0 0 0 0 0 0 0 0 0 0 0 0 0 1
3 2 2 2 1 1 1 0 0 0 0 0 0 0 0 0 0 0 0 0 0 0 0 0 0 0 0 0 0 0 0 0 0 0 0 0 0 0 0 0 0 0 0
3 2 2 1 1 1 0 0 0 0 0 0 0 0 0 0 0 0 0 0 0 0 0 0 0 0 0 0 0 0 0 0 0 0 0 0 0 0 0 0 0 0 0
2 1 1 1 0 0 0 0 0 0 0 0 0 0 0 0 0 0 0 0 0 0 0 0 0 0 0 0 0 0 0 0 0 0 0 0 0 0 0 0 0 0 0
1 0 0 0 0 0 0 0 0 0 0 0 0 0 0 0 0 0 0 0 0 0 0 0 0 0 0 0 0 0 0 0 0 0 0 0 0 0 0 0 0 0 0
0 0 0 0 0 0 0 0 0 0 0 0 0 0 0 0 0 0 0 0 0 0 0 0 0 0 0 0 0 0 0 0 0 0 0 0 0 0 0 0 0 0 0
0 0 0 0 0 0 0 0 0 0 0 0 0 0 0 0 0 0 0 0 0 0 0 0 0 0 0 0 0 0 0 0 0 0 0 0 0 0 0 0 0 0 0
0 0 0 0 0 0 0 0 0 0 0 0 0 0 0 0 0 0 0 0 0 0 0 0 0 0 0 0 0 0 0 0 0 0 0 0 0 0 0 0 0 0 0
0 0 0 0 0 0 0 0 0 0 0 0 0 0 0 0 0 0 0 0 0 0 0 0 0 0 0 0 0 0 0 0 0 0 0 0 0 0 0 0 0 0 0
0 0 0 0 0 0 0 0 0 0 0 0 0 0 0 0 0 0 0 0 0 0 0 0 0 0 0 0 0 0 0 0 0 0 0 0 0 0 0 0 0 0 0
0 0 0 0 0 0 0 0 0 0 0 0 0 0 0 0 0 0 0 0 0 0 0 0 0 0 0 0 0 0 0 0 0 0 0 0 0 0 0 0 0 0 0
0 0 0 0 0 0 0 0 0 0 0 0 0 0 0 0 0 0 0 0 0 0 0 0 0 0 0 0 0 0 0 0 0 0 0 0 0 0 0 0 0 0 0
0 0 0 0 0 0 0 0 0 0 0 0 0 0 0 0 0 0 0 0 0 0 0 0 0 0 0 0 0 0 0 0 0 0 0 0 0 0 0 0 0 0 0
0 0 0 0 0 0 0 0 0 0 0 0 0 0 0 0 0 0 0 0 0 0 0 0 0 0 0 0 0 0 0 0 0 0 0 0 0 0 0 0 0 0 0
0 0 0 0 0 0 0 0 0 0 0 0 0 0 0 0 0 0 0 0 0 0 0 0 0 0 0 0 0 0 0 0 0 0 0 0 0 0 0 0 0 0 0
0 0 0 0 0 0 0 0 0 0 0 0 0 0 0 0 0 0 0 0 0 0 0 0 0 0 0 0 0 0 0 0 0 0 0 0 0 0 0 0 0 0 0
0 0 0 0 0 0 0 0 0 0 0 0 0 0 0 0 0 0 0 0 0 0 0 0 0 0 0 0 0 0 0 0 0 0 0 0 0 0 0 0 0 0 0
0 0 0 0 0 0 0 0 0 0 0 0 0 0 0 0 0 0 0 0 0 0 0 0 0 0 0 0 0 0 0 0 0 0 0 0 0 0 0 0 0 0 0
0 0 0 0 0 0 0 0 0 0 0 0 0 0 0 0 0 0 0 0 0 0 0 0 0 0 0 0 0 0 0 0 0 0 0 0 0 0 0 0 0 0 0
0 0 0 0 0 0 0 0 0 0 0 0 0 0 0 0 0 0 0 0 0 0 0 0 0 0 0 0 0 0 0 0 0 0 0 0 0 0 0 0 0 0 0
0 0 0 0 0 0 0 0 0 0 0 0 0 0 0 0 0 0 0 0 0 0 0 0 0 0 0 0 0 0 0 0 0 0 0 0 0 0 0 0 0 0 0
0 0 0 0 0 0 0 0 0 0 0 0 0 0 0 0 0 0 0 0 0 0 0 0 0 0 0 0 0 0 0 0 0 0 0 0 0 0 0 0 0 0 0
0 0 0 0 0 0 0 0 0 0 0 0 0 0 0 0 0 0 0 0 0 0 0 0 0 0 0 0 0 0 0 0 0 0 0 0 0 0 0 0 0 0 0
0 0 0 0 0 0 0 0 0 0 0 0 0 0 0 0 0 0 0 0 0 0 0 0 0 0 0 0 0 0 0 0 0 0 0 0 0 0 0 0 0 0 0
0 0 0 0 0 0 0 0 0 0 0 0 0 0 0 0 0 0 0 0 0 0 0 0 0 0 0 0 0 0 0 0 0 0 0 0 0 0 0 0 0 0 0
Wind_Speed
4 4 4 3 3 4 3 3 3 3 3 3 2 2 2 1 1 1 1 1 2 3 3 3 4 4 3 3 3 3 4 4 8 8 5 5 6 7 7 6 7 7 7
4 4 4 4 4 4 4 3 3 3 3 2 2 2 1 0 0 1 1 2 2 3 3 3 4 3 4 3 3 4 4 5 6 10 7 6 6 7 7 8 8 7 7
4 4 4 4 4 4 4 3 3 3 2 2 2 2 1 0 0 1 1 2 2 2 3 3 4 4 5 4 4 5 4 5 5 7 8 6 6 6 7 8 8 6 8
4 4 4 3 4 4 4 3 3 2 2 2 2 1 1 0 0 1 1 2 2 2 3 4 4 4 5 5 5 5 5 5 5 6 7 7 6 6 6 6 7 5 7
4 4 4 4 4 3 3 3 2 2 2 1 1 1 0 0 0 1 1 2 2 3 3 4 5 6 8 7 6 5 5 5 5 6 7 7 7 6 6 6 8 7 7
5 4 4 4 4 3 3 3 2 2 1 1 1 0 0 1 2 4 4 2 3 3 4 5 5 6 8 10 11 11 10 7 7 6 7 8 9 8 7 7 7 8 8
4 4 3 4 4 3 3 2 2 1 1 1 0 0 0 1 3 5 6 4 3 4 5 5 5 6 8 6 9 11 11 13 12 9 8 9 9 8 8 9 8 8 9
4 3 3 3 3 3 2 2 1 1 0 0 0 0 1 2 4 6 7 4 3 4 4 5 5 6 7 8 7 7 7 7 9 8 8 9 9 8 8 9 9 8 8
4 3 3 3 3 2 2 1 1 0 0 0 1 1 2 3 4 7 7 3 3 4 5 5 6 6 10 13 8 8 8 7 9 12 13 13 14 15 11 6 6 6 8
3 3 3 3 3 2 2 1 1 0 0 1 1 1 2 2 4 7 7 3 3 4 4 5 8 9 12 13 7 7 8 8 7 7 9 10 9 10 12 7 5 6 7
2 3 2 2 2 2 1 1 1 0 0 1 2 2 2 3 4 6 7 3 3 4 4 4 5 12 13 14 11 7 10 10 6 6 6 6 5 5 5 5 4 5 6
3 2 2 2 1 1 2 1 1 0 0 1 2 2 2 2 4 6 8 8 7 5 5 5 6 12 14 14 10 11 13 11 4 4 5 5 5 5 5 5 5 5 6
3 2 2 2 1 1 1 1 0 0 1 1 2 2 3 2 3 7 8 9 10 6 5 9 12 13 13 9 10 13 10 5 4 4 5 5 5 5 4 4 5 5 5
3 2 2 2 1 1 1 0 0 0 1 2 2 3 3 3 3 3 3 5 7 6 5 8 11 11 9 9 9 7 4 4 4 4 5 5 4 4 4 4 4 5 5
3 2 2 1 1 1 1 1 1 1 2 3 2 2 3 4 5 8 6 5 4 5 6 4 4 4 4 4 4 4 4 4 4 4 4 4 4 4 4 4 4 4 5
2 1 1 1 1 0 0 2 3 3 4 5 5 5 5 7 9 10 10 10 10 9 6 3 4 4 4 4 5 4 4 4 4 4 4 4 4 5 5 5 4 4 5
1 1 1 0 0 0 0 1 2 3 5 5 6 7 7 8 9 9 9 9 9 8 3 3 4 4 4 4 4 4 4 4 3 3 4 4 4 5 5 5 4 4 5
1 1 1 0 0 0 1 1 1 2 3 3 5 7 7 8 8 8 8 7 5 4 2 3 4 4 4 4 4 4 4 4 4 3 4 4 4 4 4 5 4 5 5
1 0 0 0 0 1 1 1 1 2 2 3 3 4 6 7 8 7 7 3 3 4 4 4 4 4 4 4 4 4 4 4 4 4 4 4 4 4 4 4 4 7 6
1 2 2 1 1 1 1 1 1 2 2 3 3 3 3 4 3 4 3 3 3 4 4 4 4 4 4 4 4 4 4 4 4 4 4 4 3 3 4 5 4 4 4
1 1 2 1 1 1 1 1 2 2 2 3 3 5 7 4 3 4 4 3 3 4 4 4 4 4 3 3 3 4 4 4 4 4 4 4 3 3 3 4 4 4 4
1 1 1 1 1 1 1 1 2 2 2 3 4 5 8 4 3 4 4 4 4 4 4 3 3 3 3 3 3 4 4 4 4 4 4 4 3 3 3 3 4 3 3
1 1 1 1 1 2 2 2 2 2 3 3 4 4 4 4 4 4 4 4 4 4 4 3 4 4 3 3 3 3 4 4 4 4 4 4 4 3 3 4 4 4 3
1 1 1 1 1 1 1 2 2 3 3 3 3 4 4 4 4 5 4 4 4 4 4 4 3 5 6 5 3 3 3 4 4 4 4 4 4 3 3 3 3 3 3
1 1 1 1 1 1 2 2 2 3 3 4 4 4 4 4 4 4 4 4 5 4 5 5 4 4 5 6 5 4 6 8 8 5 3 3 3 3 3 3 3 2 2
1 1 1 1 1 1 2 2 3 3 3 4 4 4 4 4 4 4 4 4 4 5 5 4 5 6 6 5 5 7 9 9 8 9 5 2 2 2 2 2 2 2 1
Wind_Direction
140 142 136 133 125 119 125 132 132 124 121 129 136 132 127 146 189 202 243 255 258 272 276 274 273 272 270 269 267 267 267 266 275 284 284 295 297 297 300 295 291 285 288
134 127 125 123 124 124 119 119 115 115 113 121 126 109 95 63 273 241 257 271 263 269 277 282 283 288 285 280 276 272 269 264 271 284 290 293 292 297 296 296 297 295 289
124 122 121 124 125 121 115 112 111 113 113 107 102 109 111 119 328 303 292 293 291 290 291 285 285 287 286 283 280 276 274 280 276 280 286 289 291 297 300 295 291 288 291
122 124 124 123 118 115 111 109 112 115 112 108 109 115 129 225 234 296 302 300 300 297 292 285 282 277 277 280 280 277 279 282 281 282 286 291 291 293 295 296 299 294 292
119 118 121 115 109 109 110 111 107 102 102 106 110 109 153 236 247 289 297 293 287 291 296 292 288 286 285 286 285 281 279 277 283 285 286 291 293 301 300 298 296 300 293
115 119 117 116 116 116 119 118 112 107 106 106 120 122 350 314 309 308 308 296 295 295 297 297 295 292 294 296 296 293 285 278 277 275 280 283 287 289 294 297 296 298 296
121 123 121 122 120 122 118 107 111 111 97 79 58 91 301 290 303 311 316 312 298 294 293 293 295 297 302 294 294 293 288 285 278 272 272 275 282 285 290 291 284 284 284
122 121 119 121 125 122 117 120 108 92 82 82 317 318 302 298 312 314 317 313 295 291 290 291 291 293 293 294 289 286 277 278 278 275 267 271 276 278 273 279 279 283 282
126 129 131 133 133 132 137 139 118 88 19 329 324 320 308 301 307 309 310 299 294 296 295 295 296 290 297 304 300 293 288 285 288 289 289 288 289 291 291 291 286 291 295
134 130 126 134 143 146 148 135 88 78 347 351 326 308 294 293 301 310 313 300 296 298 297 295 298 298 301 305 301 296 292 289 291 295 292 291 288 288 292 283 275 281 291
113 118 123 126 132 137 123 113 111 78 11 320 302 300 294 295 305 311 315 313 299 299 300 299 298 305 306 307 307 294 291 299 290 286 289 289 289 286 282 276 266 266 277
104 109 110 108 104 97 103 90 95 78 305 294 299 303 301 300 308 309 312 313 313 303 298 298 300 309 310 309 308 302 305 309 295 290 291 292 294 294 290 286 281 272 265
104 104 105 96 87 99 115 112 85 19 314 299 297 299 306 311 311 316 316 315 312 309 299 303 307 310 312 310 306 308 311 304 296 293 291 289 288 286 290 294 292 288 287
113 105 101 95 74 50 44 63 199 277 284 292 295 298 304 305 304 304 302 304 305 303 302 303 309 310 309 304 305 307 303 292 299 291 292 292 294 295 296 298 301 306 305
101 97 93 94 93 55 13 336 301 263 259 280 274 280 292 295 297 308 312 306 306 300 309 305 304 308 311 314 315 310 306 308 308 302 300 305 306 305 305 304 302 309 304
94 92 99 100 79 73 25 352 350 330 322 316 312 308 302 301 308 312 313 314 315 315 318 308 305 305 306 309 312 312 311 310 306 304 302 301 306 307 307 310 310 310 309
88 86 83 88 93 43 324 320 322 330 328 323 318 314 313 315 316 316 318 321 318 322 318 305 301 301 302 305 306 308 309 308 305 302 302 303 304 305 307 311 314 316 315
58 66 60 78 55 303 286 289 286 297 310 312 310 310 317 321 321 322 325 329 321 325 309 297 297 298 300 303 304 305 306 311 311 305 301 301 303 306 310 312 313 314 315
34 65 69 45 336 302 301 302 298 298 301 305 312 311 317 318 319 323 330 326 309 309 307 301 298 298 298 300 301 300 301 306 307 304 300 302 306 309 309 309 310 315 317
27 7 5 8 355 339 325 311 307 305 306 306 304 304 312 318 315 316 318 311 305 302 302 300 300 299 300 299 298 301 306 306 308 307 305 304 304 303 303 306 307 308 310
1 352 355 4 351 324 313 304 303 303 303 304 301 303 316 315 303 304 307 306 304 303 304 302 300 301 298 296 296 298 298 300 302 302 305 307 305 304 303 301 301 301 304
347 344 345 337 327 321 314 305 305 302 301 302 304 308 315 318 308 307 306 306 307 304 301 301 301 297 293 292 292 295 297 299 302 305 304 306 305 303 303 302 304 308 312
345 337 335 327 315 310 319 306 303 302 299 299 303 309 314 313 312 311 311 313 314 314 312 305 303 305 304 296 289 285 288 291 293 295 301 305 307 308 307 303 302 304 307
325 316 315 316 315 309 308 310 308 304 304 305 308 309 310 312 313 315 316 315 318 318 317 314 309 308 309 310 304 297 292 292 295 291 287 291 296 300 300 300 300 296 299
324 322 318 312 314 313 312 310 308 308 309 311 312 313 315 316 316 316 317 318 319 319 318 317 314 313 313 312 309 305 306 309 309 307 294 286 287 291 295 298 301 307 312
328 322 320 318 316 313 309 306 307 309 310 310 311 311 312 314 313 314 316 318 320 318 317 317 316 314 314 313 311 312 317 319 321 320 315 296 291 297 308 313 318 325 334